GW6438 Weather Reports


time (UTC)temp
C
wind
direction
speed
KPH
gust
KPH
rain 1hr
cm
rain 24hr
cm
rain mn
cm
humidity
%
barometer
mb
20260505041539 14 220 0.0 0.0 0.00 0.00 0.00 80 1004.8
20260505040039 14 219 0.0 0.0 0.00 0.00 0.00 80 1004.7
20260505034536 15 220 3.2 8.0 0.00 0.00 0.00 74 1004.5
20260505033038 16 105 1.6 4.8 0.00 0.00 0.00 74 1004.3
20260505031536 16 201 0.0 3.2 0.00 0.00 0.00 75 1004.2
20260505030035 16 201 3.2 9.7 0.00 0.00 0.00 75 1004.1
20260505024535 17 22 0.0 11.3 0.00 0.00 0.00 68 1004.1
20260505023033 19 215 0.0 0.0 0.00 0.00 0.00 62 1004.1
20260505021533 20 215 0.0 0.0 0.00 0.00 0.00 58 1004.2
20260505020031 19 215 0.0 0.0 0.00 0.00 0.00 63 1004.4
20260505014530 18 216 0.0 0.0 0.00 0.00 0.00 65 1004.5
20260505013029 18 218 0.0 0.0 0.00 0.00 0.00 63 1004.6
20260505011528 18 215 0.0 6.4 0.00 0.00 0.00 64 1004.7
20260505010026 18 215 0.0 0.0 0.00 0.00 0.00 63 1004.8
20260505004527 17 218 3.2 6.4 0.00 0.00 0.00 65 1005.0
20260505003022 17 238 0.0 4.8 0.00 0.00 0.00 65 1005.0
20260505001520 17 219 0.0 0.0 0.00 0.00 0.00 66 1004.9
20260505000024 17 219 3.2 6.4 0.00 0.00 0.00 63 1005.0
20260504234515 18 214 3.2 9.7 0.00 0.00 0.00 61 1005.1
20260504233012 20 278 3.2 6.4 0.00 0.00 0.00 57 1005.2
20260504231509 21 18 4.8 14.5 0.00 0.00 0.00 54 1005.4
20260504230003 22 352 3.2 8.0 0.00 0.00 0.00 54 1005.5
20260504224559 22 188 4.8 14.5 0.00 0.00 0.00 49 1005.6
20260504223102 22 218 4.8 14.5 0.00 0.00 0.00 50 1005.7
20260504221600 21 188 4.8 11.3 0.00 0.00 0.00 52 1005.9
20260504220155 21 234 4.8 14.5 0.00 0.00 0.00 52 1006.0
20260504214608 21 229 8.0 14.5 0.00 0.00 0.00 52 1006.0
20260504213058 22 273 4.8 12.9 0.00 0.00 0.00 50 1006.2
20260504211554 22 225 6.4 12.9 0.00 0.00 0.00 51 1006.3
20260504210050 22 246 8.0 14.5 0.00 0.00 0.00 51 1006.4
20260504204552 22 188 3.2 11.3 0.00 0.00 0.00 50 1006.5
20260504203048 22 215 1.6 6.4 0.00 0.00 0.00 51 1006.5
20260504201559 20 63 1.6 11.3 0.00 0.00 0.00 54 1006.6
20260504200044 19 274 0.0 4.8 0.00 0.00 0.00 61 1006.6
20260504194547 18 258 3.2 6.4 0.00 0.00 0.00 66 1006.7
20260504193039 18 220 0.0 0.0 0.00 0.00 0.00 65 1006.7
20260504191543 19 296 1.6 6.4 0.00 0.00 0.00 61 1006.7
20260504190037 18 296 1.6 4.8 0.00 0.00 0.00 61 1006.9
20260504184545 19 217 0.0 6.4 0.00 0.00 0.00 62 1006.9
20260504183033 18 286 0.0 0.0 0.00 0.00 0.00 63 1007.0
20260504181537 18 285 0.0 0.0 0.00 0.00 0.00 67 1007.0
20260504180033 18 286 0.0 1.6 0.00 0.00 0.00 67 1007.0
20260504174537 18 286 0.0 4.8 0.00 0.00 0.00 68 1007.0
20260504173033 18 200 1.6 4.8 0.00 0.00 0.00 62 1007.0
20260504171534 19 201 4.8 6.4 0.00 0.00 0.00 61 1007.0
20260504120121 15 175 4.8 11.3 0.00 0.00 0.00 67 1006.1
20260504110106 15 224 0.0 8.0 0.00 0.00 0.00 66 1006.1
20260504081538 14 27 0.0 0.0 0.00 0.00 0.00 76 1005.8
20260504050022 15 293 0.0 4.8 0.00 0.00 0.00 70 1005.9